Location: Vinland
(47.7731°N, 122.6974°W)
Time: 02:28:30
(UTC+00:00)

Transit 4A - Pass Details

Date: 08 April 2023
Orbit: 864 x 979 km, 66.8° (Epoch: 29 May)

Event Time Altitude Azimuth Distance (km) Brightness Sun altitude
Exits shadow 11:24:25 32° 194° (SSW) 1,451 8.5 -20.7°
Maximum altitude 11:27:09 69° 120° (ESE) 940 7.9 -20.4°
Drops below altitude 10° 11:33:04 10° 38° (NE) 2,583 11.3 -19.6°
Sets 11:35:37 0° 36° (NE) 3,544 12.3 -19.2°
